Terminal Aerodrome Forecast
Issued by NWS

Home | Current Version | Previous Version | Text Only | Print | Product List | Glossary On
Versions: 1 2 3 4 5 6 7 8 9 10 11 12 13 14 15 16 17 18 19 20 21
000
FTUS41 KBOX 290843 AAA
TAFFMH
TAF AMD
KFMH 290843Z 2909/3006 25005KT P6SM FEW110
     FM291200 30006KT P6SM SCT035
     FM291600 31005KT P6SM SCT250
     FM291900 25006KT P6SM SCT250
     FM292100 21006KT P6SM BKN100
     FM300300 21005KT 3SM BR VCSH BKN008=

USA.gov is the U.S. government's official web portal to all federal, state and local government web resources and services.